Location: *
(2.5500°S, 65.9667°W)
Time: 17:05:27
(UTC+00:00)

A-11 Canister half - Pass Details

Date: 13 April 2024
Orbit: 1525 x 1683 km, 47.3° (Epoch: 21 May)

Event Time Altitude Azimuth Distance (km) Brightness Sun altitude
Exits shadow 06:47:22 16° 133° (SE) 3,381 10.9 -53.8°
Drops below altitude 10° 06:52:22 10° 102° (ESE) 3,847 11.5 -52.6°
Sets 06:57:21 0° 81° (E) 4,863 12.2 -51.4°
